Flag for Ukraine Weather past 2 weeks in Kryvyi Rih, Ukraine

Now
79 °F

Cloudy.


Feels Like: 80 °F
Forecast: 64 / 85 °F
Wind: 3 mph from East

Location: Krivyy Rih / Dnipropetrovs'k

Current Time: Jul 22, 2014 at 6:11:45 PM

Latest Report: Jul 22, 2014 at 5:30 PM


Visibility: N/A

Pressure: 29.86 "Hg

Humidity: 58%

Dew point: 63 °F

Location of Kryvyi RihLocation

Historic Weather in Kryvyi Rih — Graph

°F

Kryvyi Rih temperature yesterday

Maximum temperature yesterday: 82 °F (at 12:00 PM)
Minimum temperature yesterday: 63 °F (at 5:00 AM)
Average temperature yesterday: 72 °F

Past Weeks' High & Low Weather Summary

 TemperatureHumidityPressure
High90 °F (Jul 11, 4:00 PM)100% (Jul 13, 12:00 AM)30.04 "Hg (Jul 13, 12:00 AM)
Low59 °F (Jul 9, 5:00 AM)27% (Jul 9, 5:00 PM)29.65 "Hg (Jul 11, 6:30 PM)
Average74 °F65%29.84 "Hg
* Reported Jul 7 5:00 PM — Jul 22 5:00 PM, Kryvyi Rih, Weather by CustomWeather, © 2014

Note: Actual official high and low records may vary slightly from our data, if they occured in-between our weather recording intervals... More about our weather records

Advertising

Kryvyi Rih weather history for previous 24 hours

 ConditionsComfort  
Time TempWeatherWind HumidityBarometerVisibility
5:00 PM
Jul 22
79 °FBroken clouds.3 mph58%29.86 "HgN/A
4:30 PM81 °FBroken clouds.6 mph54%29.86 "HgN/A
4:00 PM81 °FBroken clouds.3 mph54%29.86 "HgN/A
3:30 PM79 °FBroken clouds.3 mph51%29.86 "HgN/A
3:00 PM79 °FBroken clouds.6 mph51%29.86 "HgN/A
2:30 PM77 °FBroken clouds.3 mph51%29.86 "HgN/A
2:00 PM77 °FBroken clouds.6 mph51%29.86 "HgN/A
1:30 PM77 °FBroken clouds.3 mph61%29.86 "HgN/A
1:00 PM77 °FBroken clouds.6 mph61%29.86 "HgN/A
12:30 PM75 °FBroken clouds.6 mph69%29.86 "HgN/A
12:00 PM75 °FBroken clouds.3 mph69%29.86 "HgN/A
11:30 AM73 °FBroken clouds.3 mph74%29.86 "HgN/A
11:00 AM73 °FBroken clouds.3 mph74%29.86 "HgN/A
10:30 AM72 °FBroken clouds.3 mph73%29.83 "HgN/A
10:00 AM72 °FBroken clouds.3 mph73%29.83 "HgN/A
9:30 AM70 °FBroken clouds.6 mph83%29.83 "HgN/A
9:00 AM70 °FPartly sunny.6 mph83%29.83 "HgN/A
8:30 AM64 °FPartly sunny.3 mph94%29.83 "HgN/A
8:00 AM64 °FPartly sunny.1 mph94%29.83 "HgN/A
7:30 AM63 °FFog.6 mph100%29.83 "Hg1 mi
7:00 AM63 °FFog.6 mph100%29.83 "Hg0 mi
6:30 AM63 °FFog.3 mph100%29.83 "Hg0 mi
6:00 AM63 °FFog.No wind100%29.83 "Hg0 mi
5:00 AM61 °FFog.1 mph100%29.80 "Hg1 mi
4:30 AM63 °FFog.6 mph100%29.80 "Hg1 mi
4:00 AM63 °FFog.6 mph100%29.80 "Hg1 mi
3:30 AM61 °FFog.3 mph100%29.80 "Hg0 mi
3:00 AM61 °FFog.1 mph100%29.77 "Hg0 mi
2:30 AM64 °FFog.3 mph94%29.77 "Hg0 mi
2:04 AM64 °FFog.3 mph94%29.77 "Hg1 mi
1:30 AM64 °FFog.3 mph94%29.77 "Hg1 mi
1:04 AM64 °FFog.6 mph94%29.80 "Hg2 mi
12:30 AM64 °FClear.6 mph94%29.80 "Hg10 mi
11:30 PM
Jul 21
66 °FPassing clouds.6 mph94%29.80 "HgN/A
11:00 PM66 °FPassing clouds.6 mph94%29.80 "HgN/A
10:55 PM66 °FPartly cloudy.6 mph94%29.80 "HgN/A
10:30 PM66 °FThundershowers. Partly cloudy.6 mph94%29.83 "HgN/A
10:00 PM66 °FThundershowers. Partly cloudy.6 mph94%29.83 "HgN/A
9:53 PM66 °FThundershowers. Partly cloudy.13 mph94%29.83 "HgN/A
9:30 PM68 °FPartly sunny.No wind88%29.83 "HgN/A
9:00 PM68 °FOvercast.No wind88%29.80 "HgN/A
8:30 PM68 °FOvercast.3 mph88%29.77 "HgN/A
8:00 PM68 °FOvercast.3 mph88%29.80 "HgN/A
7:30 PM70 °FOvercast.6 mph83%29.80 "HgN/A
7:00 PM70 °FMore clouds than sun.6 mph83%29.77 "HgN/A
6:30 PM73 °FThundershowers. Broken clouds.8 mph74%29.80 "HgN/A
6:00 PM73 °FThundershowers. Broken clouds.6 mph74%29.80 "HgN/A
Weather by CustomWeather, © 2014

See weather overviewHow to use our weather pages